STARLINK-32562 (62168 NORAD) Tracking and Keplerian Element Data

This shows tracking and keplerian element data for the satellite.

Feedback or suggestion? Click here.




ElementValue
Catalog62168
NameSTARLINK-32562
Epoch Orbit593
Epoch Day34.83335648
Epoch Year2025
RAAN90.3276
Inclination69.9995
Eccentricity0.0003506
Argument of Perigee275.8405
Mean Anonmoly128.0933
Mean Motion15.15473154
Decay Rate-0.0141462
L11 62168U 24225F 25034.83335648 -.01414620 00000+0 -81235-1 0 9991
L22 62168 69.9995 90.3276 0003506 275.8405 128.0933 15.15473154 5933



Live tracking and technical data element details for STARLINK-32562 (NORAD 62168). STARLINK-32562 can be tracked NOW for your location showing map with azimuth and elevation plus other details from your city location.







IsCatalogInMostPopularTable: catalog: 62168, numindb: 26
Update: records affected: 1



GetName: 62168 STARLINK-32562

Hit Count: updated at: Sun, 18 May 2025 22:15:06 GMT